This is the latest recevied weather packets stored in our database for station/object SV9TNF-56. If no packets are shown the sender has not sent any weather packets the latest 10 day(s).
| Time | Temp. | Humidity | Pressure | Rain* | Wind** | Luminosity | Snow |
|---|---|---|---|---|---|---|---|
| 1787884009 | 26.67° C | 53% | 1018 hPa | 0 mm | 5.36 m/s, 186° | - | - |
| 1787883709 | 26.67° C | 53% | 1018.3 hPa | 0 mm | 9.83 m/s, 188° | - | - |
| 1787883409 | 26.67° C | 53% | 1018 hPa | 0 mm | 4.92 m/s, 144° | - | - |
| 1787883109 | 26.67° C | 54% | 1018.3 hPa | 0 mm | 8.94 m/s, 198° | - | - |
| 1787882808 | 26.67° C | 53% | 1018 hPa | 0 mm | 5.81 m/s, 198° | - | - |
| 1787882509 | 27.22° C | 51% | 1018 hPa | 0 mm | 5.36 m/s, 162° | - | - |
| 1787882216 | 27.22° C | 51% | 1018.3 hPa | 0 mm | 4.47 m/s, 192° | - | - |
| 1787881608 | 27.22° C | 51% | 1018.3 hPa | 0 mm | 6.26 m/s, 183° | - | - |
| 1787881308 | 27.78° C | 49% | 1018.3 hPa | 0 mm | 6.26 m/s, 173° | - | - |
| 1787881008 | 27.22° C | 48% | 1018.3 hPa | 0 mm | 8.05 m/s, 212° | - | - |
| 1787880708 | 27.22° C | 51% | 1018 hPa | 0 mm | 7.15 m/s, 157° | - | - |
| 1787880408 | 27.22° C | 52% | 1018.3 hPa | 0 mm | 12.07 m/s, 258° | - | - |
| 1787880108 | 26.67° C | 55% | 1018.6 hPa | 0 mm | 14.75 m/s, 275° | - | - |
| 1787879808 | 27.22° C | 56% | 1018.3 hPa | 0 mm | 13.86 m/s, 306° | - | - |
| 1787879508 | 27.22° C | 53% | 1018.3 hPa | 0 mm | 22.8 m/s, 265° | - | - |
| 1787879208 | 26.67° C | 52% | 1018.6 hPa | 0 mm | 13.41 m/s, 276° | - | - |
| 1787878907 | 27.22° C | 52% | 1018.6 hPa | 0 mm | 15.2 m/s, 257° | - | - |
| 1787878607 | 26.67° C | 52% | 1018.3 hPa | 0 mm | 15.2 m/s, 279° | - | - |
| 1787878307 | 26.67° C | 56% | 1018.6 hPa | 0 mm | 29.5 m/s, 213° | - | - |
| 1787878007 | 26.67° C | 53% | 1018.6 hPa | 0 mm | 21.46 m/s, 306° | - | - |
| 1787877707 | 26.67° C | 54% | 1018.3 hPa | 0 mm | 12.07 m/s, 238° | - | - |
| 1787877407 | 26.11° C | 57% | 1018.6 hPa | 0 mm | 18.33 m/s, 232° | - | - |
| 1787877107 | 26.11° C | 62% | 1019 hPa | 0 mm | 24.59 m/s, 272° | - | - |
| 1787876807 | 26.11° C | 64% | 1019 hPa | 0 mm | 14.75 m/s, 278° | - | - |
| 1787876506 | 26.11° C | 62% | 1019 hPa | 0 mm | 15.2 m/s, 340° | - | - |
* Rain latest hour (hover to see other rain measurements)
** Current wind speed in m/s (hover to see current wind gust speed)